Preview of NWS' New Version of Forecast
This preview is not operational and should not be used for support decisions.

Regional Weather Roundup (RWR)

Issued by Gray - Portland, ME (GYX)

                            
000
ASUS41 KGYX 152205
RWRGYX
WEATHER ROUNDUP FOR MAINE AND NEW HAMPSHIRE
NATIONAL WEATHER SERVICE GRAY ME
600 PM EDT MON OCT 15 2018

MEZ002-005-006-010-012-015-018-020-021-024-026-027-029-152300-
MAINE
  
CITY           SKY/WX    TMP DP  RH WIND       PRES   REMARKS
PORTLAND       CLOUDY    58  57  97 S12G18    29.82F FOG              
SANFORD        LGT RAIN  57  56  96 S6        29.81F FOG              
BAR HARBOR     LGT RAIN  56  54  93 S18G32    29.86F                  
WISCASSET      CLOUDY    58  57  97 S12G18    29.84F                  
ROCKLAND       LGT RAIN  56  56 100 S15       29.84F                  
FRYEBURG       CLOUDY    46  45  96 S3        29.80F FOG              
LEWISTONAUBURN LGT RAIN  56  55  97 S9        29.80F FOG              
AUGUSTA        LGT RAIN  56  55  97 S10G22    29.79F FOG              
BANGOR         LGT RAIN  56  54  93 S15G29    29.81F FOG              
GREENVILLE       N/A     47  47 100 VRB6      29.73F                  
MILLINOCKET    LGT RAIN  50  49  96 S7        29.78F FOG              
HOULTON        LGT RAIN  49  49 100 SE7       29.79F FOG              
PRESQUE ISLE   LGT RAIN  47  46  97 S10       29.76F                  
FRENCHVILLE    LGT RAIN  47  41  80 SE14G23   29.71F                  
CARIBOU        LGT RAIN  48  45  89 SE13G20   29.75F FOG              
$$

NHZ002-005-008-009-011-012-014-152300-
NEW HAMPSHIRE
  
CITY           SKY/WX    TMP DP  RH WIND       PRES   REMARKS
PORTSMOUTH     CLOUDY    60  60  99 S7        29.81F                  
ROCHESTER      CLOUDY    53  53 100 CALM      29.81F FOG              
NASHUA         CLOUDY    60  60 100 CALM      29.82F                  
MANCHESTER     CLOUDY    59  57  93 S8        29.80F                  
CONCORD        CLOUDY    53  52  96 CALM      29.81F FOG              
LACONIA        CLOUDY    52  52 100 SW6       29.81F FOG              
BERLIN         CLOUDY    51  49  92 SE7       29.73F                  
WHITEFIELD     CLOUDY    48  47  96 CALM      29.74F                  
JAFFREY        CLOUDY    59  59 100 S13G21    29.83F                  
KEENE          CLOUDY    52  52 100 CALM      29.81F                  
LEBANON        CLOUDY    56  51  84 S10G21    29.77F                  
MT WASHINGTON  FOG       41  41 100 W51G61      N/A  VSB 0            
$$

VTZ005-007-008-152300-
VERMONT
  
CITY           SKY/WX    TMP DP  RH WIND       PRES   REMARKS
ST JOHNSBURY     N/A     50  49  96 MISG      29.72F                  
MONTPELIER     CLOUDY    52  51  97 S10       29.75F                  
BURLINGTON     MOCLDY    58  53  84 S16G24    29.66F                  
$$

MAZ007-012-024-CTZ003-RIZ002-NYZ038-NYZ072-152300-
SOUTHERN NEW ENGLAND AND NY
  
CITY           SKY/WX    TMP DP  RH WIND       PRES   REMARKS
BOSTON         CLOUDY    66  61  84 SW15      29.85F                  
WORCESTER      LGT RAIN  59  59 100 SW20G26   29.85F                  
NANTUCKET      CLOUDY    64  63  96 S20       29.95F                  
PROVIDENCE     DRIZZLE   65  63  93 SW14G21   29.91F FOG              
HARTFORD       LGT RAIN  62  60  93 S8        29.86F                  
ALBANY         CLOUDY    60  55  83 S14G26    29.77F                  
NEW YORK CITY  CLOUDY    67  60  78 SW13G20   29.89F                  
$$

ANZ081-ANZ082-ANZ150-NHZ014-MEZ023>029-152300-
COASTAL MARINE OBSERVATIONS
  
STATION/POSITION TIME  TEMP    WIND        PRES    WAVE
                       AIR SEA DIR/SP/G            HT/PER
                 (UTC) (F)     (DEG/KT/KT) (MB)    (FT/S)
MOUNT DESERT ROC 2200   56     150/ 30/ 33 1011.8F
MATINICUS ROCK   2100   55     170/ 30/ 33 1011.9F
ISLE OF SHOALS   2100   60     180/ 21/ 24 1010.5F
JEFFREYS LEDGE   2106      56                N/A     5/ 5
$$

.............KEY..............
   WCI - WIND CHILL
   TC  - TEMPERATURE IN CELSIUS
   VSB - VISIBILITY IN MILES
   HX  - HEAT INDEX
   FAIR- INDICATES FEW OR NO CLOUDS BELOW 12,000 FT, WITH NO 
         SIGNIFICANT WEATHER AND/OR OBSTRUCTIONS TO VISIBILITY.